RYR352 LEPA-LEZL

Flight info

Callsign RYR352
Flight time N/A
Altitude 35000
Route EPAMA N733 VLC M985 YES N747 BLN
Aircraft A320/M-SDE3FGHIRWY/LB1

Departure

Time N/A
Airport Palma de Mallorca Airport (LEPA)

Arrival

Time 2026-04-22 12:40
Airport Seville Airport (LEZL)
Time Latitude Longitude Altitude Speed Heading
2026-04-22 12:35 37.41842 -5.65645 3400 ft 190 kts 269°
2026-04-22 12:35 37.41841 -5.67301 3197 ft 189 kts 269°
2026-04-22 12:35 37.41839 -5.68948 2950 ft 185 kts 269°
2026-04-22 12:36 37.41837 -5.70510 2723 ft 173 kts 269°
2026-04-22 12:36 37.41835 -5.71980 2494 ft 163 kts 269°
2026-04-22 12:36 37.41833 -5.73351 2315 ft 151 kts 269°
2026-04-22 12:36 37.41830 -5.74632 2111 ft 144 kts 269°
2026-04-22 12:37 37.41828 -5.75880 1922 ft 142 kts 269°
2026-04-22 12:37 37.41825 -5.77098 1726 ft 141 kts 269°
2026-04-22 12:37 37.41823 -5.78327 1550 ft 140 kts 269°
2026-04-22 12:37 37.41820 -5.79552 1366 ft 140 kts 269°
2026-04-22 12:38 37.41817 -5.80774 1176 ft 139 kts 269°
2026-04-22 12:38 37.41814 -5.81994 999 ft 139 kts 269°
2026-04-22 12:38 37.41811 -5.83228 815 ft 139 kts 269°
2026-04-22 12:38 37.41808 -5.84445 624 ft 139 kts 268°
2026-04-22 12:39 37.41805 -5.85664 440 ft 139 kts 268°
2026-04-22 12:39 37.41800 -5.88058 111 ft 131 kts 267°
2026-04-22 12:39 37.41795 -5.89016 103 ft 85 kts 270°
2026-04-22 12:40 37.41793 -5.89549 99 ft 43 kts 269°
2026-04-22 12:40 37.41805 -5.89756 95 ft 18 kts 299°
2026-04-22 12:40 37.41894 -5.89825 98 ft 8 kts 337°
2026-04-22 12:40 37.41943 -5.89851 96 ft 8 kts 337°
2026-04-22 12:41 37.41989 -5.89876 96 ft 7 kts 337°
2026-04-22 12:41 37.42035 -5.89901 95 ft 7 kts 337°
2026-04-22 12:41 37.42080 -5.89924 95 ft 7 kts 337°
2026-04-22 12:41 37.42127 -5.89926 94 ft 7 kts 10°
2026-04-22 12:42 37.42162 -5.89952 94 ft 6 kts 315°
2026-04-22 12:42 37.42185 -5.89983 94 ft 2 kts 314°
2026-04-22 12:42 37.42186 -5.89984 94 ft 0 kts 314°